,,,PA_Meas_PMT16A,,PR_Meas_QMR101_102,,RH_Meas_QMH101,,SR_Meas_QMS101,,TA_Meas_QMH101,,GenWind,,GenWind,
date,time,status,PA,status,PR,status,RH,status,SR,status,TA,status,DirAvg,status,SpdAvg,
2009-04-10, 00:00:04,VALID,1000.1,VALID,0,VALID,94.2563,VALID,0,VALID,24.757,VALID,134,VALID,0.508594,
2009-04-10, 00:01:04,VALID,1000.1,VALID,0,VALID,94.3021,VALID,0,VALID,24.7765,VALID,128,VALID,0.591406,
2009-04-10, 00:02:04,VALID,1000.12,VALID,0,VALID,94.2487,VALID,0,VALID,24.7551,VALID,128,VALID,0.430469,
2009-04-10, 00:03:04,VALID,1000.12,VALID,0,VALID,94.2029,VALID,0,VALID,24.7765,VALID,128,VALID,0.485938,
2009-04-10, 00:04:04,VALID,1000.05,VALID,0,VALID,94.2258,VALID,0,VALID,24.7765,VALID,128,VALID,0.566016,
2009-04-10, 00:05:04,VALID,1000.07,VALID,0,VALID,94.2334,VALID,0,VALID,24.7356,VALID,128,VALID,0.560156,
2009-04-10, 00:06:04,VALID,1000.04,VALID,0,VALID,94.2411,VALID,0,VALID,24.7765,VALID,128,VALID,0.455859,
2009-04-10, 00:07:04,VALID,1000,VALID,0,VALID,94.1953,VALID,0,VALID,24.7551,VALID,130,VALID,0.380469,
2009-04-10, 00:08:04,VALID,1000.02,VALID,0,VALID,94.1648,VALID,0,VALID,24.7142,VALID,131,VALID,0.485547,
2009-04-10, 00:09:04,VALID,999.993,VALID,0,VALID,94.1571,VALID,0,VALID,24.7142,VALID,131,VALID,0.433203,
2009-04-10, 00:10:04,VALID,999.956,VALID,0,VALID,94.1495,VALID,0,VALID,24.7356,VALID,143,VALID,1.03477,
2009-04-10, 00:11:04,VALID,999.948,VALID,0,VALID,94.1571,VALID,0,VALID,24.716,VALID,144,VALID,0.844531,
2009-04-10, 00:12:04,VALID,999.917,VALID,0,VALID,94.1266,VALID,0,VALID,24.716,VALID,144,VALID,0.661719,
2009-04-10, 00:13:04,VALID,999.936,VALID,0,VALID,94.1648,VALID,0,VALID,24.716,VALID,144,VALID,0.365625,
2009-04-10, 00:14:04,VALID,999.883,VALID,0,VALID,94.1266,VALID,0,VALID,24.7179,VALID,161,VALID,0.610937,
2009-04-10, 00:15:04,VALID,999.858,VALID,0,VALID,94.1037,VALID,0,VALID,24.6965,VALID,161,VALID,0.731641,
2009-04-10, 00:16:04,VALID,999.846,VALID,0,VALID,94.1419,VALID,0,VALID,24.716,VALID,161,VALID,0.759375,
2009-04-10, 00:17:04,VALID,999.795,VALID,0,VALID,94.119,VALID,0,VALID,24.716,VALID,161,VALID,0.901563,
2009-04-10, 00:18:04,VALID,999.787,VALID,0,VALID,94.058,VALID,0,VALID,24.716,VALID,161,VALID,1.05352,
2009-04-10, 00:19:04,VALID,999.723,VALID,0,VALID,93.9664,VALID,0,VALID,24.716,VALID,162,VALID,0.848437,
2009-04-10, 00:20:04,VALID,999.7,VALID,0,VALID,93.9359,VALID,0,VALID,24.6965,VALID,165,VALID,0.936719,
2009-04-10, 00:21:04,VALID,999.668,VALID,0,VALID,93.9283,VALID,0,VALID,24.6965,VALID,165,VALID,0.880859,
2009-04-10, 00:22:04,VALID,999.663,VALID,0,VALID,93.8825,VALID,0,VALID,24.6789,VALID,169,VALID,0.705078,
2009-04-10, 00:23:04,VALID,999.65,VALID,0,VALID,93.8977,VALID,0,VALID,24.6789,VALID,168,VALID,0.804688,
2009-04-10, 00:24:04,VALID,999.657,VALID,0,VALID,93.8596,VALID,0,VALID,24.6789,VALID,169,VALID,0.546484,
2009-04-10, 00:25:04,VALID,999.665,VALID,0,VALID,93.8443,VALID,0,VALID,24.6594,VALID,169,VALID,0.567578,
2009-04-10, 00:26:04,VALID,999.672,VALID,0,VALID,93.8825,VALID,0,VALID,24.6575,VALID,163,VALID,0.580859,
2009-04-10, 00:27:04,VALID,999.685,VALID,0,VALID,93.8672,VALID,0,VALID,24.6789,VALID,163,VALID,0.349609,
2009-04-10, 00:28:04,VALID,999.675,VALID,0,VALID,93.7985,VALID,0,VALID,24.6398,VALID,163,VALID,0.150781,
2009-04-10, 00:29:04,VALID,999.678,VALID,0,VALID,93.7604,VALID,0,VALID,24.6398,VALID,163,VALID,0.125,
2009-04-10, 00:30:04,VALID,999.683,VALID,0,VALID,93.7604,VALID,0,VALID,24.6398,VALID,163,VALID,0,
2009-04-10, 00:31:04,VALID,999.663,VALID,0,VALID,93.8062,VALID,0,VALID,24.6203,VALID,163,VALID,0.223047,
2009-04-10, 00:32:04,VALID,999.627,VALID,0,VALID,93.8367,VALID,0,VALID,24.6203,VALID,163,VALID,0.104687,
2009-04-10, 00:33:04,VALID,999.619,VALID,0,VALID,93.7985,VALID,0,VALID,24.6203,VALID,163,VALID,0.084375,
2009-04-10, 00:34:04,VALID,999.613,VALID,0,VALID,93.7985,VALID,0,VALID,24.5794,VALID,163,VALID,0.302344,
2009-04-10, 00:35:04,VALID,999.595,VALID,0,VALID,93.8367,VALID,0,VALID,24.6203,VALID,163,VALID,0.394141,
2009-04-10, 00:36:04,VALID,999.567,VALID,0,VALID,93.852,VALID,0,VALID,24.5989,VALID,163,VALID,0.533594,
2009-04-10, 00:37:04,VALID,999.569,VALID,0,VALID,93.768,VALID,0,VALID,24.5794,VALID,157,VALID,0.435547,
2009-04-10, 00:38:04,VALID,999.536,VALID,0,VALID,93.8977,VALID,0,VALID,24.6008,VALID,144,VALID,0.721484,
2009-04-10, 00:39:04,VALID,999.484,VALID,0,VALID,93.9206,VALID,0,VALID,24.5989,VALID,141,VALID,0.533203,
2009-04-10, 00:40:04,VALID,999.439,VALID,0,VALID,93.9054,VALID,0,VALID,24.6203,VALID,141,VALID,0.472266,
2009-04-10, 00:41:04,VALID,999.401,VALID,0,VALID,93.8443,VALID,0,VALID,24.6008,VALID,141,VALID,0.361719,
2009-04-10, 00:42:04,VALID,999.339,VALID,0,VALID,93.8138,VALID,0,VALID,24.5813,VALID,140,VALID,0.526172,
2009-04-10, 00:43:04,VALID,999.328,VALID,0,VALID,93.7985,VALID,0,VALID,24.5618,VALID,140,VALID,0.227734,
2009-04-10, 00:44:04,VALID,999.26,VALID,0,VALID,93.8138,VALID,0,VALID,24.5618,VALID,140,VALID,0,
2009-04-10, 00:45:04,VALID,999.211,VALID,0,VALID,93.7757,VALID,0,VALID,24.5422,VALID,140,VALID,0,
2009-04-10, 00:46:04,VALID,999.168,VALID,0,VALID,93.768,VALID,0,VALID,24.5227,VALID,140,VALID,0,
2009-04-10, 00:47:04,VALID,999.145,VALID,0,VALID,93.7833,VALID,0,VALID,24.5032,VALID,140,VALID,0,
2009-04-10, 00:48:04,VALID,999.103,VALID,0,VALID,93.8367,VALID,0,VALID,24.4837,VALID,140,VALID,0,
2009-04-10, 00:49:04,VALID,999.077,VALID,0,VALID,93.8672,VALID,0,VALID,24.4837,VALID,140,VALID,0,
2009-04-10, 00:50:04,VALID,999.067,VALID,0,VALID,93.9206,VALID,0,VALID,24.4837,VALID,140,VALID,0,
2009-04-10, 00:51:04,VALID,999.017,VALID,0,VALID,93.9435,VALID,0,VALID,24.4837,VALID,140,VALID,0,
2009-04-10, 00:52:04,VALID,999.037,VALID,0,VALID,93.9664,VALID,0,VALID,24.4818,VALID,140,VALID,0,
2009-04-10, 00:53:04,VALID,999.018,VALID,0,VALID,93.9969,VALID,0.112286,VALID,24.5013,VALID,140,VALID,0,
2009-04-10, 00:54:04,VALID,999.028,VALID,0,VALID,94.0274,VALID,0,VALID,24.4818,VALID,140,VALID,0,
2009-04-10, 00:55:04,VALID,999.028,VALID,0,VALID,94.0427,VALID,0,VALID,24.4818,VALID,140,VALID,0,
2009-04-10, 00:56:04,VALID,999.03,VALID,0,VALID,94.119,VALID,0,VALID,24.4604,VALID,140,VALID,0.369531,
2009-04-10, 00:57:04,VALID,999.037,VALID,0,VALID,94.1724,VALID,0,VALID,24.5013,VALID,140,VALID,0.354688,
2009-04-10, 00:58:04,VALID,999.043,VALID,0,VALID,94.1571,VALID,0,VALID,24.5032,VALID,140,VALID,0.363672,
2009-04-10, 00:59:04,VALID,999.017,VALID,0,VALID,93.913,VALID,0,VALID,24.4623,VALID,82,VALID,0.514453,
2009-04-10, 01:00:04,VALID,999.023,VALID,0,VALID,93.8291,VALID,0,VALID,24.3842,VALID,60,VALID,0.5625,
2009-04-10, 01:01:04,VALID,999.026,VALID,0,VALID,93.9206,VALID,0,VALID,24.3647,VALID,59,VALID,0.518359,
2009-04-10, 01:02:04,VALID,998.994,VALID,0,VALID,93.9511,VALID,0,VALID,24.3257,VALID,59,VALID,0.385547,
2009-04-10, 01:03:04,VALID,998.993,VALID,0,VALID,93.8977,VALID,0,VALID,24.2866,VALID,59,VALID,0.394531,
2009-04-10, 01:04:04,VALID,998.989,VALID,0,VALID,93.913,VALID,0,VALID,24.2671,VALID,59,VALID,0.362891,
2009-04-10, 01:05:04,VALID,998.966,VALID,0,VALID,94.1114,VALID,0,VALID,24.2671,VALID,59,VALID,0.258984,
2009-04-10, 01:06:04,VALID,998.941,VALID,0,VALID,94.2258,VALID,0,VALID,24.2866,VALID,59,VALID,0.1625,
2009-04-10, 01:07:04,VALID,998.938,VALID,0,VALID,94.264,VALID,0,VALID,24.3062,VALID,59,VALID,0.347656,
2009-04-10, 01:08:04,VALID,998.925,VALID,0,VALID,94.2411,VALID,0,VALID,24.3062,VALID,73,VALID,0.510156,
2009-04-10, 01:09:04,VALID,998.956,VALID,0,VALID,94.2182,VALID,0,VALID,24.2866,VALID,91,VALID,0.772656,
2009-04-10, 01:10:04,VALID,998.915,VALID,0,VALID,94.2716,VALID,0,VALID,24.3062,VALID,91,VALID,0.683594,
2009-04-10, 01:11:04,VALID,998.901,VALID,0,VALID,94.2182,VALID,0,VALID,24.2866,VALID,92,VALID,0.658203,
2009-04-10, 01:12:04,VALID,998.893,VALID,0,VALID,94.1953,VALID,0,VALID,24.2671,VALID,99,VALID,0.537891,
2009-04-10, 01:13:04,VALID,998.881,VALID,0,VALID,94.2105,VALID,0,VALID,24.2476,VALID,99,VALID,0.497656,
2009-04-10, 01:14:04,VALID,998.831,VALID,0,VALID,94.2258,VALID,0,VALID,24.2476,VALID,99,VALID,0.378906,
2009-04-10, 01:15:04,VALID,998.836,VALID,0,VALID,94.2411,VALID,0,VALID,24.2476,VALID,99,VALID,0.228516,
2009-04-10, 01:16:04,VALID,998.802,VALID,0,VALID,94.3174,VALID,0,VALID,24.2671,VALID,99,VALID,0.217578,
2009-04-10, 01:17:04,VALID,998.761,VALID,0,VALID,94.3631,VALID,0,VALID,24.2671,VALID,99,VALID,0.191016,
2009-04-10, 01:18:04,VALID,998.76,VALID,0,VALID,94.3631,VALID,0,VALID,24.2866,VALID,99,VALID,0.232031,
2009-04-10, 01:19:04,VALID,998.734,VALID,0,VALID,94.3631,VALID,0,VALID,24.2866,VALID,156,VALID,0.558594,
2009-04-10, 01:20:04,VALID,998.738,VALID,0,VALID,94.3708,VALID,0,VALID,24.2866,VALID,162,VALID,0.553125,
2009-04-10, 01:21:04,VALID,998.701,VALID,0,VALID,94.325,VALID,0,VALID,24.2671,VALID,174,VALID,0.719141,
2009-04-10, 01:22:04,VALID,998.709,VALID,0,VALID,94.2411,VALID,0,VALID,24.2476,VALID,174,VALID,0.834766,
2009-04-10, 01:23:04,VALID,998.723,VALID,0,VALID,94.2487,VALID,0,VALID,24.2476,VALID,170,VALID,1.13086,
2009-04-10, 01:24:04,VALID,998.7,VALID,0,VALID,94.1037,VALID,0,VALID,24.2476,VALID,163,VALID,1.42734,
2009-04-10, 01:25:04,VALID,998.712,VALID,0,VALID,93.974,VALID,0,VALID,24.2476,VALID,146,VALID,1.37305,
2009-04-10, 01:26:04,VALID,998.709,VALID,0,VALID,93.8214,VALID,0,VALID,24.2671,VALID,144,VALID,1.29492,
2009-04-10, 01:27:04,VALID,998.702,VALID,0,VALID,93.6612,VALID,0,VALID,24.3062,VALID,153,VALID,1.40625,
2009-04-10, 01:28:04,VALID,998.651,VALID,0,VALID,93.5391,VALID,0,VALID,24.3062,VALID,151,VALID,1.15859,
2009-04-10, 01:29:04,VALID,998.671,VALID,0,VALID,93.4018,VALID,0,VALID,24.3062,VALID,151,VALID,0.979297,
2009-04-10, 01:30:04,VALID,998.613,VALID,0,VALID,93.2645,VALID,0,VALID,24.3062,VALID,145,VALID,0.713281,
2009-04-10, 01:31:04,VALID,998.625,VALID,0,VALID,93.1958,VALID,0,VALID,24.3062,VALID,147,VALID,0.607422,
2009-04-10, 01:32:04,VALID,998.633,VALID,0,VALID,93.1958,VALID,0,VALID,24.3062,VALID,145,VALID,0.728125,
2009-04-10, 01:33:04,VALID,998.628,VALID,0,VALID,93.1424,VALID,0,VALID,24.2653,VALID,129,VALID,0.915234,
2009-04-10, 01:34:04,VALID,998.664,VALID,0,VALID,93.0585,VALID,0,VALID,24.2866,VALID,133,VALID,0.55625,
2009-04-10, 01:35:04,VALID,998.671,VALID,0,VALID,93.0508,VALID,0,VALID,24.2671,VALID,129,VALID,0.786328,
2009-04-10, 01:36:04,VALID,998.697,VALID,0,VALID,92.9745,VALID,0,VALID,24.2476,VALID,124,VALID,0.825781,
2009-04-10, 01:37:04,VALID,998.71,VALID,0,VALID,92.9517,VALID,0,VALID,24.2086,VALID,123,VALID,0.757422,
2009-04-10, 01:38:04,VALID,998.718,VALID,0,VALID,92.9517,VALID,0,VALID,24.1891,VALID,122,VALID,0.675391,
2009-04-10, 01:39:04,VALID,998.741,VALID,0,VALID,93.0737,VALID,0,VALID,24.1696,VALID,113,VALID,0.720703,
2009-04-10, 01:40:04,VALID,998.75,VALID,0,VALID,93.1882,VALID,0,VALID,24.1696,VALID,100,VALID,0.753125,
2009-04-10, 01:41:04,VALID,998.702,VALID,0,VALID,93.1653,VALID,0,VALID,24.1305,VALID,89,VALID,0.885938,
2009-04-10, 01:42:04,VALID,998.716,VALID,0,VALID,93.1348,VALID,0,VALID,24.111,VALID,81,VALID,0.727734,
2009-04-10, 01:43:04,VALID,998.73,VALID,0,VALID,93.0661,VALID,0,VALID,24.072,VALID,66,VALID,0.759766,
2009-04-10, 01:44:04,VALID,998.724,VALID,0,VALID,93.2263,VALID,0,VALID,24.0525,VALID,45,VALID,0.875781,
2009-04-10, 01:45:04,VALID,998.75,VALID,0,VALID,93.3255,VALID,0,VALID,24.0525,VALID,43,VALID,0.810547,
2009-04-10, 01:46:04,VALID,998.769,VALID,0,VALID,93.3408,VALID,0,VALID,24.0134,VALID,40,VALID,0.731641,
2009-04-10, 01:47:04,VALID,998.751,VALID,0,VALID,93.234,VALID,0,VALID,24.0134,VALID,22,VALID,0.721094,
2009-04-10, 01:48:04,VALID,998.777,VALID,0,VALID,93.3026,VALID,0,VALID,23.9744,VALID,23,VALID,1.01367,
2009-04-10, 01:49:04,VALID,998.801,VALID,0,VALID,93.4171,VALID,0,VALID,23.9354,VALID,29,VALID,1.26289,
2009-04-10, 01:50:04,VALID,998.786,VALID,0,VALID,93.6383,VALID,0.112286,VALID,23.9354,VALID,25,VALID,1.45938,
2009-04-10, 01:51:04,VALID,998.8,VALID,0,VALID,93.8748,VALID,0,VALID,23.9744,VALID,30,VALID,1.48984,
2009-04-10, 01:52:04,VALID,998.77,VALID,0,VALID,93.8291,VALID,0,VALID,23.9567,VALID,24,VALID,1.15898,
2009-04-10, 01:53:04,VALID,998.73,VALID,0,VALID,94.0198,VALID,0,VALID,23.9567,VALID,31,VALID,1.40547,
2009-04-10, 01:54:04,VALID,998.738,VALID,0,VALID,94.0656,VALID,0,VALID,23.9762,VALID,26,VALID,1.2832,
2009-04-10, 01:55:04,VALID,998.728,VALID,0,VALID,94.0732,VALID,0,VALID,23.9762,VALID,26,VALID,1.19531,
2009-04-10, 01:56:04,VALID,998.717,VALID,0,VALID,94.1114,VALID,0,VALID,23.9567,VALID,26,VALID,1.0543,
2009-04-10, 01:57:04,VALID,998.709,VALID,0,VALID,94.2105,VALID,0,VALID,23.9762,VALID,32,VALID,1.16133,
2009-04-10, 01:58:04,VALID,998.703,VALID,0,VALID,94.3326,VALID,0,VALID,23.9957,VALID,26,VALID,1.26797,
2009-04-10, 01:59:04,VALID,998.701,VALID,0,VALID,94.2868,VALID,0,VALID,23.9957,VALID,34,VALID,1.275,
2009-04-10, 02:00:04,VALID,998.696,VALID,0,VALID,94.3097,VALID,0,VALID,23.9939,VALID,33,VALID,1.17109,
2009-04-10, 02:01:04,VALID,998.664,VALID,0,VALID,94.3403,VALID,0,VALID,24.0153,VALID,39,VALID,1.25234,
2009-04-10, 02:02:04,VALID,998.633,VALID,0,VALID,94.3326,VALID,0,VALID,24.0153,VALID,39,VALID,0.887109,
2009-04-10, 02:03:04,VALID,998.596,VALID,0,VALID,94.3555,VALID,0,VALID,24.0329,VALID,47,VALID,0.794922,
2009-04-10, 02:04:04,VALID,998.596,VALID,0,VALID,94.3326,VALID,0,VALID,24.0543,VALID,47,VALID,0.639844,
2009-04-10, 02:05:04,VALID,998.562,VALID,0,VALID,94.325,VALID,0,VALID,24.0543,VALID,47,VALID,0.412109,
2009-04-10, 02:06:04,VALID,998.567,VALID,0,VALID,94.2868,VALID,0,VALID,24.0329,VALID,47,VALID,0.021875,
2009-04-10, 02:07:04,VALID,998.541,VALID,0,VALID,94.2029,VALID,0.112286,VALID,24.0116,VALID,47,VALID,0,
2009-04-10, 02:08:04,VALID,998.541,VALID,0,VALID,94.1648,VALID,0.112286,VALID,23.9921,VALID,47,VALID,0,
2009-04-10, 02:09:04,VALID,998.538,VALID,0,VALID,94.2105,VALID,0,VALID,24.0348,VALID,47,VALID,0.282422,
2009-04-10, 02:10:04,VALID,998.551,VALID,0,VALID,94.3326,VALID,0,VALID,24.0329,VALID,66,VALID,0.455078,
2009-04-10, 02:11:04,VALID,998.504,VALID,0,VALID,94.3784,VALID,0,VALID,24.0525,VALID,121,VALID,0.711719,
2009-04-10, 02:12:04,VALID,998.493,VALID,0,VALID,94.386,VALID,0,VALID,24.072,VALID,128,VALID,0.914453,
2009-04-10, 02:13:04,VALID,998.425,VALID,0,VALID,94.3631,VALID,0.112286,VALID,24.0525,VALID,131,VALID,0.913281,
2009-04-10, 02:14:04,VALID,998.433,VALID,0,VALID,94.3479,VALID,0.112286,VALID,24.0525,VALID,134,VALID,0.816797,
2009-04-10, 02:15:04,VALID,998.41,VALID,0,VALID,94.3097,VALID,0.112286,VALID,24.0525,VALID,145,VALID,0.819922,
2009-04-10, 02:16:04,VALID,998.416,VALID,0,VALID,94.2716,VALID,0.112286,VALID,24.0329,VALID,148,VALID,1.03203,
2009-04-10, 02:17:04,VALID,998.425,VALID,0,VALID,94.2029,VALID,0.112286,VALID,24.0329,VALID,154,VALID,0.803125,
2009-04-10, 02:18:04,VALID,998.409,VALID,0,VALID,94.2334,VALID,0,VALID,24.0329,VALID,149,VALID,1.07891,
2009-04-10, 02:19:04,VALID,998.371,VALID,0,VALID,94.2182,VALID,0,VALID,24.0525,VALID,156,VALID,0.807813,
2009-04-10, 02:20:04,VALID,998.341,VALID,0,VALID,94.2105,VALID,0.112286,VALID,24.0311,VALID,154,VALID,0.673437,
2009-04-10, 02:21:04,VALID,998.33,VALID,0,VALID,94.1648,VALID,0.112286,VALID,24.072,VALID,160,VALID,0.441016,
2009-04-10, 02:22:04,VALID,998.297,VALID,0,VALID,94.119,VALID,0,VALID,24.0543,VALID,159,VALID,0.187109,
2009-04-10, 02:23:04,VALID,998.293,VALID,0,VALID,94.0885,VALID,0,VALID,24.0329,VALID,159,VALID,0.0960938,
2009-04-10, 02:24:04,VALID,998.301,VALID,0,VALID,94.0732,VALID,0,VALID,24.0348,VALID,159,VALID,0.144922,
2009-04-10, 02:25:04,VALID,998.288,VALID,0,VALID,94.1037,VALID,0,VALID,24.0543,VALID,160,VALID,0.333203,
2009-04-10, 02:26:04,VALID,998.329,VALID,0,VALID,94.1724,VALID,0,VALID,24.0543,VALID,160,VALID,0.317187,
2009-04-10, 02:27:04,VALID,998.337,VALID,0,VALID,94.1571,VALID,0,VALID,24.0738,VALID,158,VALID,0.332812,
2009-04-10, 02:28:04,VALID,998.361,VALID,0,VALID,94.2029,VALID,0,VALID,24.0738,VALID,158,VALID,0.272266,
2009-04-10, 02:29:04,VALID,998.403,VALID,0,VALID,94.0961,VALID,0,VALID,24.0738,VALID,156,VALID,0.371484,
2009-04-10, 02:30:04,VALID,998.395,VALID,0,VALID,94.058,VALID,0,VALID,24.0543,VALID,147,VALID,0.458203,
2009-04-10, 02:31:04,VALID,998.39,VALID,0,VALID,94.0885,VALID,0,VALID,24.0329,VALID,125,VALID,0.458594,
2009-04-10, 02:32:04,VALID,998.431,VALID,0,VALID,94.0503,VALID,0,VALID,24.0543,VALID,119,VALID,0.969141,
2009-04-10, 02:33:04,VALID,998.446,VALID,0,VALID,93.9664,VALID,0,VALID,23.9939,VALID,96,VALID,0.751562,
2009-04-10, 02:34:04,VALID,998.435,VALID,0,VALID,93.9817,VALID,0,VALID,23.9957,VALID,115,VALID,0.986719,
2009-04-10, 02:35:04,VALID,998.444,VALID,0,VALID,93.9054,VALID,0,VALID,23.9744,VALID,116,VALID,0.789844,
2009-04-10, 02:36:04,VALID,998.462,VALID,0,VALID,93.8977,VALID,0,VALID,23.9549,VALID,116,VALID,0.746875,
2009-04-10, 02:37:04,VALID,998.493,VALID,0,VALID,93.9664,VALID,0,VALID,23.9567,VALID,114,VALID,0.805469,
2009-04-10, 02:38:04,VALID,998.48,VALID,0,VALID,93.9664,VALID,0,VALID,23.9567,VALID,114,VALID,0.396875,
2009-04-10, 02:39:04,VALID,998.493,VALID,0,VALID,93.9817,VALID,0,VALID,23.9372,VALID,114,VALID,0.31875,
2009-04-10, 02:40:04,VALID,998.471,VALID,0,VALID,94.0198,VALID,0,VALID,23.9177,VALID,59,VALID,0.633203,
2009-04-10, 02:41:04,VALID,998.476,VALID,0,VALID,94.0122,VALID,0,VALID,23.8963,VALID,34,VALID,0.728906,
2009-04-10, 02:42:04,VALID,998.468,VALID,0,VALID,93.9664,VALID,0,VALID,23.8982,VALID,27,VALID,0.868359,
2009-04-10, 02:43:04,VALID,998.498,VALID,0,VALID,93.9893,VALID,0,VALID,23.8982,VALID,27,VALID,0.85,
2009-04-10, 02:44:04,VALID,998.488,VALID,0,VALID,93.9588,VALID,0,VALID,23.8573,VALID,20,VALID,1.22773,
2009-04-10, 02:45:04,VALID,998.479,VALID,0,VALID,93.913,VALID,0,VALID,23.8786,VALID,14,VALID,1.2,
2009-04-10, 02:46:04,VALID,998.459,VALID,0,VALID,93.974,VALID,0,VALID,23.8396,VALID,19,VALID,0.857422,
2009-04-10, 02:47:04,VALID,998.445,VALID,0,VALID,94.0122,VALID,0,VALID,23.8396,VALID,19,VALID,0.73125,
2009-04-10, 02:48:04,VALID,998.442,VALID,0,VALID,94.0122,VALID,0,VALID,23.8201,VALID,19,VALID,0.184375,
2009-04-10, 02:49:04,VALID,998.447,VALID,0,VALID,93.9969,VALID,0,VALID,23.7988,VALID,19,VALID,0.0183594,
2009-04-10, 02:50:04,VALID,998.437,VALID,0,VALID,94.0351,VALID,0,VALID,23.7811,VALID,19,VALID,0.273047,
2009-04-10, 02:51:04,VALID,998.408,VALID,0,VALID,94.1648,VALID,0,VALID,23.8201,VALID,19,VALID,0.358594,
2009-04-10, 02:52:04,VALID,998.439,VALID,0,VALID,94.3097,VALID,0,VALID,23.8786,VALID,19,VALID,0.386719,
2009-04-10, 02:53:04,VALID,998.425,VALID,0,VALID,94.3021,VALID,0,VALID,23.8768,VALID,19,VALID,0.49375,
2009-04-10, 02:54:04,VALID,998.42,VALID,0,VALID,94.3097,VALID,0,VALID,23.8768,VALID,8,VALID,0.535937,
2009-04-10, 02:55:04,VALID,998.391,VALID,0,VALID,94.3708,VALID,0,VALID,23.9372,VALID,8,VALID,0.589844,
2009-04-10, 02:56:04,VALID,998.389,VALID,0,VALID,94.3631,VALID,0,VALID,23.9372,VALID,8,VALID,0.537109,
2009-04-10, 02:57:04,VALID,998.367,VALID,0,VALID,94.3479,VALID,0,VALID,23.9372,VALID,8,VALID,0.38125,
2009-04-10, 02:58:04,VALID,998.327,VALID,0,VALID,94.3708,VALID,0,VALID,23.9567,VALID,8,VALID,0.297656,
2009-04-10, 02:59:04,VALID,998.313,VALID,0,VALID,94.3631,VALID,0,VALID,23.9762,VALID,8,VALID,0.253516,
2009-04-10, 03:00:04,VALID,998.299,VALID,0,VALID,94.3555,VALID,0,VALID,23.9957,VALID,8,VALID,0.212109,
2009-04-10, 03:01:04,VALID,998.285,VALID,0,VALID,94.3326,VALID,0,VALID,23.9957,VALID,8,VALID,0.128125,
2009-04-10, 03:02:04,VALID,998.277,VALID,0,VALID,94.325,VALID,0,VALID,23.9744,VALID,8,VALID,0.0796875,
2009-04-10, 03:03:04,VALID,998.297,VALID,0,VALID,94.3479,VALID,0,VALID,23.9762,VALID,8,VALID,0.242578,
2009-04-10, 03:04:04,VALID,998.323,VALID,0,VALID,94.3631,VALID,0,VALID,23.9957,VALID,8,VALID,0.441016,
2009-04-10, 03:05:04,VALID,998.362,VALID,0,VALID,94.325,VALID,0,VALID,23.9957,VALID,8,VALID,0.558594,
2009-04-10, 03:06:04,VALID,998.347,VALID,0,VALID,94.3097,VALID,0,VALID,23.9744,VALID,8,VALID,0.633594,
2009-04-10, 03:07:04,VALID,998.363,VALID,0,VALID,94.2945,VALID,0,VALID,23.9762,VALID,37,VALID,0.747266,
2009-04-10, 03:08:04,VALID,998.358,VALID,0,VALID,94.2411,VALID,0,VALID,23.9762,VALID,37,VALID,0.667578,
2009-04-10, 03:09:04,VALID,998.328,VALID,0,VALID,94.18,VALID,0,VALID,23.9354,VALID,37,VALID,0.796875,
2009-04-10, 03:10:04,VALID,998.337,VALID,0,VALID,94.1648,VALID,0,VALID,23.9159,VALID,37,VALID,1.02539,
2009-04-10, 03:11:04,VALID,998.344,VALID,0,VALID,94.1724,VALID,0,VALID,23.8963,VALID,33,VALID,1.44023,
2009-04-10, 03:12:04,VALID,998.351,VALID,0,VALID,94.264,VALID,0,VALID,23.9372,VALID,28,VALID,1.77227,
2009-04-10, 03:13:04,VALID,998.298,VALID,0,VALID,94.3174,VALID,0,VALID,23.9567,VALID,45,VALID,1.70078,
2009-04-10, 03:14:04,VALID,998.265,VALID,0,VALID,94.3555,VALID,0,VALID,23.9762,VALID,43,VALID,1.17656,
2009-04-10, 03:15:04,VALID,998.297,VALID,0,VALID,94.264,VALID,0,VALID,23.9762,VALID,42,VALID,0.717969,
2009-04-10, 03:16:04,VALID,998.292,VALID,0,VALID,94.2716,VALID,0,VALID,23.9744,VALID,40,VALID,0.893359,
2009-04-10, 03:17:04,VALID,998.304,VALID,0,VALID,94.2716,VALID,0,VALID,24.0153,VALID,43,VALID,0.819922,
2009-04-10, 03:18:04,VALID,998.301,VALID,0,VALID,94.264,VALID,0,VALID,24.0348,VALID,51,VALID,0.879297,
2009-04-10, 03:19:04,VALID,998.334,VALID,0,VALID,94.2563,VALID,0,VALID,24.0329,VALID,46,VALID,0.596094,
2009-04-10, 03:20:04,VALID,998.312,VALID,0,VALID,94.2029,VALID,0,VALID,24.0543,VALID,62,VALID,0.926562,
2009-04-10, 03:21:04,VALID,998.333,VALID,0,VALID,94.2334,VALID,0,VALID,24.0543,VALID,61,VALID,0.844922,
2009-04-10, 03:22:04,VALID,998.327,VALID,0,VALID,94.2487,VALID,0,VALID,24.0525,VALID,61,VALID,0.905469,
2009-04-10, 03:23:04,VALID,998.319,VALID,0,VALID,94.18,VALID,0,VALID,24.0933,VALID,61,VALID,0.767969,
2009-04-10, 03:24:04,VALID,998.301,VALID,0,VALID,94.1877,VALID,0,VALID,24.072,VALID,54,VALID,0.836328,
2009-04-10, 03:25:04,VALID,998.269,VALID,0,VALID,94.1495,VALID,0,VALID,24.0915,VALID,82,VALID,0.761719,
2009-04-10, 03:26:04,VALID,998.271,VALID,0,VALID,94.1953,VALID,0,VALID,24.0915,VALID,74,VALID,1.17461,
2009-04-10, 03:27:04,VALID,998.225,VALID,0,VALID,94.2105,VALID,0,VALID,24.1324,VALID,64,VALID,1.22539,
2009-04-10, 03:28:04,VALID,998.182,VALID,0,VALID,94.2105,VALID,0,VALID,24.1305,VALID,66,VALID,0.974609,
2009-04-10, 03:29:04,VALID,998.196,VALID,0,VALID,94.2029,VALID,0,VALID,24.1305,VALID,66,VALID,0.798437,
2009-04-10, 03:30:04,VALID,998.158,VALID,0,VALID,94.2029,VALID,0,VALID,24.1305,VALID,65,VALID,0.780078,
2009-04-10, 03:31:04,VALID,998.167,VALID,0,VALID,94.1877,VALID,0,VALID,24.1519,VALID,66,VALID,1.13086,
2009-04-10, 03:32:04,VALID,998.162,VALID,0,VALID,94.1571,VALID,0,VALID,24.1305,VALID,55,VALID,0.879687,
2009-04-10, 03:33:04,VALID,998.143,VALID,0,VALID,94.1877,VALID,0,VALID,24.111,VALID,53,VALID,1.08203,
2009-04-10, 03:34:04,VALID,998.118,VALID,0,VALID,94.1495,VALID,0,VALID,24.1305,VALID,50,VALID,0.814453,
2009-04-10, 03:35:04,VALID,998.117,VALID,0,VALID,94.1419,VALID,0,VALID,24.1305,VALID,44,VALID,0.708594,
2009-04-10, 03:36:04,VALID,998.074,VALID,0,VALID,94.18,VALID,0,VALID,24.1305,VALID,53,VALID,0.625,
2009-04-10, 03:37:04,VALID,998.064,VALID,0,VALID,94.1419,VALID,0,VALID,24.1324,VALID,63,VALID,0.453906,
2009-04-10, 03:38:04,VALID,998.032,VALID,0,VALID,94.0808,VALID,0,VALID,24.1324,VALID,64,VALID,0.4,
2009-04-10, 03:39:04,VALID,998.002,VALID,0,VALID,94.0122,VALID,0,VALID,24.1128,VALID,64,VALID,0.179297,
2009-04-10, 03:40:04,VALID,998.009,VALID,0,VALID,93.974,VALID,0,VALID,24.0933,VALID,64,VALID,0,
2009-04-10, 03:41:04,VALID,998.032,VALID,0,VALID,93.9664,VALID,0,VALID,24.0738,VALID,64,VALID,0.00117188,
2009-04-10, 03:42:04,VALID,998.026,VALID,0,VALID,93.9664,VALID,0,VALID,24.072,VALID,64,VALID,0.210938,
2009-04-10, 03:43:04,VALID,998.056,VALID,0,VALID,94.0503,VALID,0,VALID,24.0738,VALID,64,VALID,0.344141,
2009-04-10, 03:44:04,VALID,998.043,VALID,0,VALID,94.0045,VALID,0,VALID,24.0738,VALID,124,VALID,0.5375,
2009-04-10, 03:45:04,VALID,998.033,VALID,0,VALID,93.8977,VALID,0,VALID,24.0543,VALID,127,VALID,0.61875,
2009-04-10, 03:46:04,VALID,998.059,VALID,0,VALID,93.8901,VALID,0,VALID,24.0329,VALID,127,VALID,0.444922,